FW3224 Weather Reports


time (UTC)temp
F
wind
direction
speed
knots
gust
knots
rain 1hr
in
rain 24hr
in
rain mn
in
humidity
%
barometer
mb
20260906212527 57 293 0.0 1.7 0.00 0.00 0.00 93 1021.9
20260906212026 56 293 0.0 2.6 0.00 0.00 0.00 93 1021.9
20260906211525 56 293 0.9 1.7 0.00 0.00 0.00 93 1021.9
20260906211026 56 293 0.0 1.7 0.00 0.00 0.00 93 1021.7
20260906210524 56 293 0.9 1.7 0.00 0.00 0.00 93 1021.6
20260906210023 56 293 0.9 1.7 0.00 0.00 0.00 94 1021.5
20260906205522 56 293 0.0 1.7 0.00 0.00 0.00 93 1021.5
20260906205020 56 229 0.0 1.7 0.00 0.00 0.00 93 1021.4
20260906204621 56 229 0.9 0.9 0.00 0.00 0.00 1021.4
20260906093549 60 83 0.9 7.0 0.00 0.00 0.00 82 1020.1
20260906093048 60 101 0.9 7.0 0.00 0.00 0.00 82 1020.1
20260906092549 60 98 1.7 7.0 0.00 0.00 0.00 82 1020.0
20260906092047 60 92 0.9 3.5 0.00 0.00 0.00 81 1020.0
20260906091547 60 93 0.9 3.5 0.00 0.00 0.00 81 1019.9
20260906091045 60 78 0.0 2.6 0.00 0.00 0.00 80 1019.8
20260906090544 61 98 0.9 7.8 0.00 0.00 0.00 80 1019.7
20260906090045 60 74 2.6 7.8 0.00 0.00 0.00 79 1019.7
20260906085542 60 98 1.7 5.2 0.00 0.00 0.00 79 1019.5
20260906085042 60 88 0.9 5.2 0.00 0.00 0.00 78 1019.5
20260906084542 60 89 0.9 3.5 0.00 0.00 0.00 77 1019.4
20260906084041 60 111 0.9 3.5 0.00 0.00 0.00 76 1019.3
20260906083539 61 85 0.9 3.5 0.00 0.00 0.00 75 1019.2
20260906083042 61 78 0.9 3.5 0.00 0.00 0.00 75 1019.1
20260906082537 61 103 0.0 3.5 0.00 0.00 0.00 74 1019.0
20260906082040 61 78 0.9 2.6 0.00 0.00 0.00 74 1019.0
20260906081535 61 81 0.9 2.6 0.00 0.00 0.00 73 1018.8
20260906081034 61 99 0.9 5.2 0.00 0.00 0.00 73 1018.8
20260906080533 61 100 1.7 5.2 0.00 0.00 0.00 72 1018.6
20260906080034 62 101 0.0 3.5 0.00 0.00 0.00 72 1018.6
20260906075531 62 82 0.9 3.5 0.00 0.00 0.00 71 1018.5
20260906075031 62 82 0.9 3.5 0.00 0.00 0.00 71 1018.3
20260906074530 62 81 0.9 7.8 0.00 0.00 0.00 70 1018.3
20260906074033 63 101 1.7 7.8 0.00 0.00 0.00 69 1018.2
20260906073529 63 111 1.7 7.8 0.00 0.00 0.00 69 1018.2
20260906073031 63 96 1.7 5.2 0.00 0.00 0.00 68 1018.1
20260906072527 63 78 1.7 7.0 0.00 0.00 0.00 67 1018.1
20260906072027 64 101 1.7 8.7 0.00 0.00 0.00 66 1017.9
20260906071525 64 101 2.6 8.7 0.00 0.00 0.00 64 1017.9
20260906071027 64 63 1.7 7.0 0.00 0.00 0.00 64 1017.7
20260906070523 64 88 0.9 7.8 0.00 0.00 0.00 63 1017.7
20260906070023 65 40 1.7 7.8 0.00 0.00 0.00 62 1017.6
20260906065524 65 101 2.6 8.7 0.00 0.00 0.00 62 1017.4
20260906065022 65 80 2.6 8.7 0.00 0.00 0.00 62 1017.3
20260906064521 65 76 1.7 9.6 0.00 0.00 0.00 63 1017.2
20260906064026 65 182 3.5 9.6 0.00 0.00 0.00 63 1017.2
20260906063523 66 100 2.6 7.8 0.00 0.00 0.00 62 1017.2
20260906063019 66 89 1.7 10.4 0.00 0.00 0.00 60 1017.0
20260906062518 66 100 2.6 10.4 0.00 0.00 0.00 59 1017.0
20260906062018 66 82 2.6 10.4 0.00 0.00 0.00 59 1017.0
20260906061517 66 80 3.5 10.4 0.00 0.00 0.00 57 1016.9
20260906061016 66 77 2.6 9.6 0.00 0.00 0.00 57 1016.9
20260906060517 67 90 1.7 8.7 0.00 0.00 0.00 56 1016.8
20260906060025 67 84 2.6 7.8 0.00 0.00 0.00 56 1016.8
20260906055516 67 72 3.5 7.8 0.00 0.00 0.00 56 1016.8
20260906055015 67 67 1.7 6.1 0.00 0.00 0.00 54 1016.7
20260906054528 67 117 1.7 8.7 0.00 0.00 0.00 57 1016.7
20260906054015 67 108 2.6 9.6 0.00 0.00 0.00 55 1016.7
20260906053613 67 86 1.7 9.6 0.00 0.00 0.00 55 1016.7
20260906053014 67 90 2.6 13.0 0.00 0.00 0.00 54 1016.6
20260906052514 67 360 3.5 13.0 0.00 0.00 0.00 54 1016.5
20260906052016 67 88 3.5 11.3 0.00 0.00 0.00 55 1016.6
20260906051513 67 111 3.5 11.3 0.00 0.00 0.00 53 1016.5
20260906051012 67 84 4.3 11.3 0.00 0.00 0.00 52 1016.5
20260906050512 67 163 4.3 8.7 0.00 0.00 0.00 54 1016.5
20260906050011 67 129 1.7 8.7 0.00 0.00 0.00 56 1016.5
20260906045511 67 78 3.5 13.0 0.00 0.00 0.00 55 1016.4
20260906045012 67 36 3.5 15.6 0.00 0.00 0.00 53 1016.2
20260906044512 68 85 4.3 13.0 0.00 0.00 0.00 53 1016.1
20260906044011 68 98 1.7 13.0 0.00 0.00 0.00 53 1016.2
20260906043510 68 78 4.3 14.8 0.00 0.00 0.00 50 1016.1
20260906043015 68 94 1.7 14.8 0.00 0.00 0.00 51 1016.1
20260906042509 68 73 3.5 12.2 0.00 0.00 0.00 52 1016.0
20260906042010 68 83 5.2 12.2 0.00 0.00 0.00 50 1016.1
20260906041509 69 65 3.5 9.6 0.00 0.00 0.00 49 1016.1
20260906041009 69 86 3.5 11.3 0.00 0.00 0.00 49 1016.0
20260906040509 69 94 3.5 11.3 0.00 0.00 0.00 48 1016.0
20260906040020 69 85 3.5 10.4 0.00 0.00 0.00 48 1016.0
20260906035508 69 76 4.3 10.4 0.00 0.00 0.00 47 1016.0
20260906035011 69 78 1.7 9.6 0.00 0.00 0.00 47 1016.0
20260906034514 69 70 3.5 12.2 0.00 0.00 0.00 47 1015.9
20260906034008 70 91 4.3 12.2 0.00 0.00 0.00 45 1015.9
20260906033508 70 100 4.3 10.4 0.00 0.00 0.00 45 1015.9
20260906033028 70 64 4.3 7.8 0.00 0.00 0.00 46 1015.9
20260906032508 70 113 1.7 9.6 0.00 0.00 0.00 46 1015.8
20260906032008 70 59 2.6 9.6 0.00 0.00 0.00 45 1015.8
20260906031509 70 51 1.7 8.7 0.00 0.00 0.00 45 1015.8
20260906031007 70 136 2.6 8.7 0.00 0.00 0.00 45 1015.6
20260906030507 70 64 2.6 7.8 0.00 0.00 0.00 44 1015.8
20260906030007 71 51 2.6 11.3 0.00 0.00 0.00 45 1015.7
20260906025506 71 115 2.6 11.3 0.00 0.00 0.00 42 1015.7
20260906025006 71 80 2.6 7.0 0.00 0.00 0.00 42 1015.7
20260906024506 71 92 1.7 7.8 0.00 0.00 0.00 40 1015.8
20260906024005 71 77 3.5 12.2 0.00 0.00 0.00 40 1015.9
20260906023505 71 95 3.5 12.2 0.00 0.00 0.00 42 1015.8
20260906023004 71 94 2.6 8.7 0.00 0.00 0.00 39 1015.9
20260906022504 72 23 2.6 7.8 0.00 0.00 0.00 41 1015.9
20260906022004 71 230 0.9 8.7 0.00 0.00 0.00 42 1015.8
20260906021504 70 86 2.6 8.7 0.00 0.00 0.00 42 1015.9
20260906021003 70 67 1.7 7.0 0.00 0.00 0.00 42 1015.9
20260906020502 70 130 0.9 7.8 0.00 0.00 0.00 42 1016.0
20260906020000 70 209 3.5 11.3 0.00 0.00 0.00 41 1016.0
20260906015600 70 186 5.2 11.3 0.00 0.00 0.00 41 1016.2
20260906015103 70 194 4.3 10.4 0.00 0.00 0.00 41 1016.2
20260906014600 70 113 1.7 8.7 0.00 0.00 0.00 42 1016.0
20260906014059 69 149 3.5 9.6 0.00 0.00 0.00 42 1016.1
20260906013602 69 142 3.5 12.2 0.00 0.00 0.00 41 1016.0
20260906013104 69 147 3.5 11.3 0.00 0.00 0.00 41 1016.3
20260906012557 69 149 2.6 8.7 0.00 0.00 0.00 41 1016.3
20260906012057 69 132 4.3 9.6 0.00 0.00 0.00 41 1016.2
20260906011557 69 169 2.6 11.3 0.00 0.00 0.00 41 1016.2
20260906011055 69 179 4.3 10.4 0.00 0.00 0.00 42 1016.2
20260906010555 69 92 3.5 8.7 0.00 0.00 0.00 42 1016.1
20260906010054 69 146 2.6 13.0 0.00 0.00 0.00 43 1016.1
20260906005554 69 192 6.1 13.0 0.00 0.00 0.00 42 1016.1
20260906005054 69 210 2.6 7.8 0.00 0.00 0.00 43 1016.1
20260906004554 69 211 2.6 10.4 0.00 0.00 0.00 43 1016.0
20260906004053 68 221 1.7 10.4 0.00 0.00 0.00 44 1016.0
20260906003553 68 261 3.5 7.8 0.00 0.00 0.00 44 1015.9
20260906003054 68 257 3.5 12.2 0.00 0.00 0.00 44 1016.1
20260906002556 68 269 3.5 12.2 0.00 0.00 0.00 46 1016.0
20260906002052 67 225 3.5 8.7 0.00 0.00 0.00 45 1015.8
20260906001551 67 207 3.5 8.7 0.00 0.00 0.00 44 1015.9
20260906001051 67 219 3.5 8.7 0.00 0.00 0.00 44 1016.0
20260906000553 67 241 3.5 11.3 0.00 0.00 0.00 46 1015.9
20260906000051 67 259 3.5 8.7 0.00 0.00 0.00 46 1015.8
20260905235550 66 242 2.6 8.7 0.00 0.00 0.00 45 1015.9
20260905235050 66 243 2.6 11.3 0.00 0.00 0.00 46 1015.7
20260905234550 66 238 3.5 10.4 0.00 0.00 0.00 45 1015.8
20260905234050 66 216 3.5 7.0 0.00 0.00 0.00 47 1015.8
20260905233549 65 211 4.3 8.7 0.00 0.00 0.00 46 1015.7
20260905233057 65 229 3.5 14.8 0.00 0.00 0.00 46 1015.7
20260905232548 66 186 6.1 13.9 0.00 0.00 0.00 45 1016.0
20260905232048 66 247 1.7 10.4 0.00 0.00 0.00 49 1015.8
20260905231547 65 240 3.5 10.4 0.00 0.00 0.00 47 1015.6
20260905231046 65 332 2.6 9.6 0.00 0.00 0.00 49 1015.6
20260905230546 64 248 4.3 13.0 0.00 0.00 0.00 48 1015.5
20260905230046 64 270 5.2 13.0 0.00 0.00 0.00 47 1015.5
20260905225545 64 250 6.1 12.2 0.00 0.00 0.00 48 1015.4
20260905225045 64 235 3.5 8.7 0.00 0.00 0.00 49 1015.4
20260905224609 64 221 2.6 10.4 0.00 0.00 0.00 50 1015.4
20260905224043 64 221 5.2 11.3 0.00 0.00 0.00 50 1015.3
20260905223544 64 245 4.3 11.3 0.00 0.00 0.00 51 1015.3
20260905223046 63 259 4.3 10.4 0.00 0.00 0.00 50 1015.3
20260905222545 63 276 4.3 10.4 0.00 0.00 0.00 49 1015.2
20260905222046 63 212 3.5 12.2 0.00 0.00 0.00 51 1015.2
20260905221542 63 261 7.0 12.2 0.00 0.00 0.00 49 1015.1
20260905221041 63 231 6.1 11.3 0.00 0.00 0.00 49 1015.1
20260905220541 63 241 3.5 11.3 0.00 0.00 0.00 50 1015.0
20260905220041 63 225 6.1 12.2 0.00 0.00 0.00 50 1014.9
20260905215541 62 252 6.1 13.0 0.00 0.00 0.00 50 1014.9
20260905215039 62 254 6.1 13.0 0.00 0.00 0.00 50 1015.1
20260905214546 62 306 3.5 12.2 0.00 0.00 0.00 50 1014.8
20260905214038 62 251 4.3 13.9 0.00 0.00 0.00 50 1014.8
20260905213540 62 252 4.3 13.9 0.00 0.00 0.00 50 1014.5
20260905213038 62 259 4.3 13.0 0.00 0.00 0.00 50 1014.4